Weather History for Williamsburg, VA

Change the Weather History Date:

Wednesday, November 6, 2013

  Actual Average Record
Temperature  
Mean Temperature 58 °F -  
Max Temperature 69 °F 63 °F 83 °F (1959)
Min Temperature 46 °F 39 °F 22 °F (1991)
Degree Days  
Heating Degree Days 8    
Growing Degree Days 8 (Base 50)    
Moisture  
Dew Point 53 °F    
Average Humidity 82    
Maximum Humidity 100    
Minimum Humidity 56    
Precipitation  
Precipitation 0.00 in - - ()
Sea Level Pressure  
Sea Level Pressure 30.31 in    
Wind  
Wind Speed 2 mph (SE)    
Max Wind Speed 10 mph    
Max Gust Speed -    
Visibility 10 miles    
Events      
Averages and records for this station are not official NWS values.
T = Trace of Precipitation, MM = Missing Value Source: NWS Daily Summary

Daily Weather History Graph

Daily Weather History Graph

Search for Another Location

Airport:

Trip Planner

Search our weather history database for the weather conditions in past years. The results will help you decide how hot, cold, wet, or windy it might be!

Date:

Astronomy

Nov. 06, 2013 Rise Set
Actual Time 6:36 AM EST 5:03 PM EST
Civil Twilight 6:09 AM EST 5:31 PM EST
Nautical Twilight 5:38 AM EST 6:02 PM EST
Astronomical Twilight 5:07 AM EST 6:32 PM EST
Moon 9:47 AM EST (11/6) 8:07 PM EST (11/6)
Length of Visible Light 11h 21m
Length of Day
10h 27m
Waxing Crescent, 13% of the Moon is Illuminated
Nov 6
Waxing Crescent
Nov 10
First Quarter
Nov 17
Full
Nov 25
Last Quarter
Dec 2
New

Hourly Weather History & Observations

Time (EST) Temp. Windchill Dew Point Humidity Pressure Visibility Wind Dir Wind Speed Gust Speed Precip Events Conditions
12:15 AM 50.0 °F - 48.2 °F 94% 30.47 in 10.0 mi Calm Calm - N/A   Scattered Clouds
12:35 AM 50.0 °F - 48.2 °F 94% 30.47 in 10.0 mi Calm Calm - N/A   Mostly Cloudy
12:55 AM 50.0 °F - 48.2 °F 94% 30.46 in 10.0 mi Calm Calm - N/A   Overcast
1:35 AM 51.8 °F - 48.2 °F 88% 30.45 in 10.0 mi Calm Calm - N/A   Overcast
1:55 AM 51.8 °F - 48.2 °F 88% 30.45 in 10.0 mi Calm Calm - N/A   Mostly Cloudy
2:15 AM 51.8 °F - 50.0 °F 94% 30.44 in 10.0 mi Calm Calm - N/A   Mostly Cloudy
2:35 AM 50.0 °F - 48.2 °F 94% 30.43 in 10.0 mi Calm Calm - N/A   Mostly Cloudy
2:55 AM 50.0 °F - 48.2 °F 94% 30.43 in 10.0 mi Calm Calm - N/A   Clear
3:15 AM 48.2 °F - 48.2 °F 100% 30.43 in 7.0 mi Calm Calm - N/A   Clear
3:35 AM 50.0 °F - 48.2 °F 94% 30.42 in 7.0 mi Calm Calm - N/A   Clear
3:55 AM 48.2 °F - 48.2 °F 100% 30.42 in 10.0 mi Calm Calm - N/A   Clear
4:15 AM 48.2 °F - 48.2 °F 100% 30.42 in 7.0 mi Calm Calm - N/A   Clear
4:35 AM 48.2 °F - 46.4 °F 93% 30.41 in 7.0 mi Calm Calm - N/A   Clear
4:55 AM 48.2 °F - 46.4 °F 93% 30.41 in 7.0 mi Calm Calm - N/A   Clear
5:15 AM 48.2 °F - 46.4 °F 93% 30.40 in 7.0 mi Calm Calm - N/A   Clear
5:35 AM 48.2 °F - 46.4 °F 93% 30.40 in 10.0 mi Calm Calm - N/A   Clear
5:55 AM 46.4 °F 45.2 °F 46.4 °F 100% 30.40 in 7.0 mi East 3.5 mph - N/A   Clear
6:15 AM 46.4 °F - 46.4 °F 100% 30.39 in 7.0 mi Calm Calm - N/A   Clear
6:35 AM 46.4 °F 44.3 °F 46.4 °F 100% 30.39 in 10.0 mi ESE 4.6 mph - N/A   Clear
6:55 AM 48.2 °F - 46.4 °F 93% 30.39 in 4.0 mi Calm Calm - N/A   Clear
7:15 AM 48.2 °F - 48.2 °F 100% 30.39 in 7.0 mi ESE 3.5 mph - N/A   Clear
7:35 AM 51.8 °F - 50.0 °F 94% 30.39 in 7.0 mi ESE 4.6 mph - N/A   Clear
7:55 AM 53.6 °F - 51.8 °F 94% 30.39 in 10.0 mi Calm Calm - N/A   Clear
8:15 AM 55.4 °F - 55.4 °F 100% 30.39 in 10.0 mi SE 5.8 mph - N/A   Clear
8:35 AM 57.2 °F - 55.4 °F 94% 30.39 in 10.0 mi East 4.6 mph - N/A   Clear
8:55 AM 57.2 °F - 57.2 °F 100% 30.39 in 10.0 mi ESE 4.6 mph - N/A   Clear
9:15 AM 60.8 °F - 57.2 °F 88% 30.39 in 10.0 mi ESE 4.6 mph - N/A   Clear
9:35 AM 62.6 °F - 57.2 °F 82% 30.38 in 10.0 mi SE 6.9 mph - N/A   Clear
9:55 AM 62.6 °F - 55.4 °F 77% 30.38 in 10.0 mi SE 4.6 mph - N/A   Clear
10:15 AM 64.4 °F - 55.4 °F 73% 30.38 in 10.0 mi ESE 5.8 mph - N/A   Clear
10:35 AM 66.2 °F - 55.4 °F 68% 30.37 in 10.0 mi SSE 8.1 mph - N/A   Clear
10:55 AM 66.2 °F - 55.4 °F 68% 30.37 in 10.0 mi SSE 8.1 mph - N/A   Clear
11:15 AM 68.0 °F - 55.4 °F 64% 30.37 in 10.0 mi SE 8.1 mph - N/A   Clear
11:35 AM 68.0 °F - 53.6 °F 60% 30.36 in 10.0 mi SSE 9.2 mph - N/A   Scattered Clouds
11:55 AM 68.0 °F - 53.6 °F 60% 30.34 in 10.0 mi South 10.4 mph - N/A   Scattered Clouds
12:15 PM 68.0 °F - 53.6 °F 60% 30.34 in 10.0 mi SSE 6.9 mph - N/A   Clear
12:35 PM 66.2 °F - 53.6 °F 64% 30.32 in 10.0 mi SSE 6.9 mph - N/A   Clear
12:55 PM 66.2 °F - 53.6 °F 64% 30.31 in 10.0 mi SSE 6.9 mph - N/A   Clear
1:15 PM 66.2 °F - 53.6 °F 64% 30.30 in 10.0 mi SSE 6.9 mph - N/A   Mostly Cloudy
1:35 PM 68.0 °F - 53.6 °F 60% 30.30 in 10.0 mi SSE 5.8 mph - N/A   Overcast
1:55 PM 69.8 °F - 53.6 °F 56% 30.29 in 10.0 mi SSE 5.8 mph - N/A   Mostly Cloudy
2:15 PM 68.0 °F - 53.6 °F 60% 30.28 in 10.0 mi SSE 4.6 mph - N/A   Overcast
2:35 PM 68.0 °F - 53.6 °F 60% 30.28 in 10.0 mi SSE 4.6 mph - N/A   Overcast
2:55 PM 66.2 °F - 51.8 °F 60% 30.27 in 10.0 mi Calm Calm - N/A   Overcast
3:15 PM 66.2 °F - 51.8 °F 60% 30.27 in 10.0 mi SSE 3.5 mph - N/A   Overcast
3:35 PM 66.2 °F - 51.8 °F 60% 30.26 in 10.0 mi SSE 3.5 mph - N/A   Overcast
3:55 PM 64.4 °F - 55.4 °F 73% 30.26 in 10.0 mi Calm Calm - N/A   Overcast
4:15 PM 64.4 °F - 55.4 °F 73% 30.25 in 10.0 mi Calm Calm - N/A   Overcast
4:35 PM 64.4 °F - 55.4 °F 73% 30.24 in 10.0 mi Calm Calm - N/A   Overcast
4:55 PM 62.6 °F - 55.4 °F 77% 30.24 in 10.0 mi Calm Calm - N/A   Overcast
5:15 PM 62.6 °F - 55.4 °F 77% 30.23 in 10.0 mi East 3.5 mph - N/A   Overcast
5:35 PM 62.6 °F - 55.4 °F 77% 30.23 in 10.0 mi SE 3.5 mph - N/A   Overcast
5:55 PM 62.6 °F - 53.6 °F 72% 30.23 in 10.0 mi SE 3.5 mph - N/A   Overcast
6:15 PM 62.6 °F - 55.4 °F 77% 30.23 in 10.0 mi SE 4.6 mph - N/A   Overcast
6:35 PM 62.6 °F - 55.4 °F 77% 30.23 in 10.0 mi SE 3.5 mph - N/A   Overcast
6:55 PM 62.6 °F - 57.2 °F 82% 30.22 in 10.0 mi Calm Calm - N/A   Overcast
7:15 PM 62.6 °F - 55.4 °F 77% 30.22 in 10.0 mi SSE 3.5 mph - N/A   Overcast
7:35 PM 62.6 °F - 57.2 °F 82% 30.21 in 10.0 mi SSE 4.6 mph - N/A   Overcast
7:55 PM 62.6 °F - 57.2 °F 82% 30.20 in 10.0 mi SE 5.8 mph - N/A   Mostly Cloudy
8:15 PM 60.8 °F - 57.2 °F 88% 30.19 in 10.0 mi SSE 3.5 mph - N/A   Scattered Clouds
8:35 PM 62.6 °F - 57.2 °F 82% 30.19 in 10.0 mi SSE 6.9 mph - N/A   Mostly Cloudy
8:55 PM 62.6 °F - 57.2 °F 82% 30.18 in 10.0 mi SSE 9.2 mph - N/A   Overcast
9:15 PM 62.6 °F - 57.2 °F 82% 30.18 in 10.0 mi SSE 8.1 mph - N/A   Mostly Cloudy
9:35 PM 62.6 °F - 57.2 °F 82% 30.17 in 10.0 mi SSE 4.6 mph - N/A   Mostly Cloudy
9:55 PM 60.8 °F - 57.2 °F 88% 30.17 in 10.0 mi South 3.5 mph - N/A   Scattered Clouds
10:15 PM 60.8 °F - 55.4 °F 82% 30.16 in 10.0 mi West 3.5 mph - N/A   Clear
10:35 PM 59.0 °F - 55.4 °F 88% 30.16 in 10.0 mi Calm Calm - N/A   Scattered Clouds
10:55 PM 59.0 °F - 55.4 °F 88% 30.15 in 10.0 mi Calm Calm - N/A   Mostly Cloudy
11:15 PM 60.8 °F - 55.4 °F 82% 30.14 in 10.0 mi Calm Calm - N/A   Overcast
11:35 PM 60.8 °F - 57.2 °F 88% 30.13 in 10.0 mi Calm Calm - N/A   Overcast
11:55 PM 60.8 °F - 57.2 °F 88% 30.13 in 10.0 mi Calm Calm - N/A   Overcast